Weather in Sennaya Guba

Russia / Republic of Karelia     61°59′50″N   35°13′28″E
temp.,
°C
wind,
m/s
gust,
m/s
humid.,
%
clouds,
%
prec.,
mm/h
press.,
hPa
HPBL,
m
28 february, sun
sun2800:00−3nw3388100 0.0 101574
03:00−3wsw2395100 0.1 101452
06:00−5wsw3494100 0.0 101329
09:00−7sw239496 0.0 101324
12:00−5ssw339179 0.0 101334
15:00−4s349047 0.0 101435
18:00−2sw349773 0.1 1015106
21:00−1wsw459886 0.3 1016134
1 march, mon
mon100:00−2w569784 0.0 101565
03:00−4wsw579576 0.0 101589
06:00−3wsw599679 0.0 1012140
09:00+1wsw6129590 0.2 1010347
12:00+1wsw71294100 0.1 1008335
15:00+1w81493100 0.3 1006355
18:00+2w91594100 0.4 1004376
21:000w689290 0.5 1003106
2 march, tue
tue200:00+1wnw91690100 1.1 1002636
03:00−3w7128853 1.1 1002157
06:00−2wnw81584100 0.0 1001338
09:00−2nw9168292 0.0 1003614
12:00−2nw10158396 0.0 1005836
15:00−2nnw8148492 0.0 1008588
18:00−3nw7128480 0.0 1010235
21:00−5wnw698884 0.0 1012115
3 march, wed
wed300:00−6nw698946 0.0 1013121
03:00−6wnw699324 0.0 1014109
06:00−8nw69950 0.0 1014105
09:00−8wnw689425 0.0 1015103
12:00−6w469123 0.0 1014125
15:00−2w6108933 0.0 1012228
18:00−3wsw6989100 0.0 1009136
21:00−2wsw61288100 0.0 1005328
4 march, thu
thu400:000wsw91590100 0.4 1000527
03:00+1wsw91789100 0.4 995591
06:000w91498100 0.6 992503
09:00−2wnw9158097 1.7 991898
12:00−4wnw11177774 0.1 9921162
15:00−5nw10158484 0.1 995916
18:00−6nw91584100 0.1 998428
21:00−10nw7118884 0.1 1000171